Wind_Speed
5 4 5 4 2 1 2 5 1 4 3 2 7 6 10 9 6 3 6 12 20 32 32 31 30 29 27 25 23 22 21 19 18 18 18 18 18 17 15 15 14 14 13 14 13 12 11 10 9
3 4 5 3 2 3 4 4 8 8 6 15 13 3 3 5 12 18 24 13 23 32 31 31 31 30 28 26 24 22 21 20 19 18 18 18 17 16 16 15 14 14 14 13 13 13 11 11 9
4 7 3 1 3 7 4 5 5 4 7 7 6 4 6 4 10 7 16 20 31 32 31 31 32 31 28 26 25 23 21 20 19 19 19 18 17 17 16 15 14 14 14 13 13 12 11 10 9
5 4 3 3 8 5 4 1 2 8 7 2 3 10 10 9 17 13 12 25 32 32 30 30 31 31 28 26 25 24 22 21 20 20 19 19 18 17 17 16 14 14 13 12 12 11 10 10 9
6 2 3 1 5 5 6 8 12 10 8 9 5 8 10 9 20 20 14 21 26 30 29 30 31 30 29 27 26 24 23 21 20 19 20 19 19 18 17 16 14 14 13 12 11 11 11 10 9
2 2 2 4 6 4 5 14 6 8 11 14 5 5 5 14 19 17 14 21 26 29 30 31 31 29 28 27 26 25 23 21 20 19 19 19 19 18 17 16 15 14 12 12 11 12 11 10 9
2 2 3 2 4 4 6 9 9 15 12 8 4 5 8 12 27 26 14 21 26 31 30 32 31 30 28 27 26 25 24 22 20 19 19 19 19 18 17 16 16 14 12 12 12 13 11 10 8
3 1 2 3 6 9 5 4 6 5 9 7 2 2 5 26 27 26 17 23 27 31 32 32 32 31 30 29 27 25 24 23 21 20 20 20 19 19 18 17 16 15 13 13 14 14 12 9 8
3 3 6 7 9 6 4 7 2 9 14 9 9 14 17 19 21 19 15 22 29 32 34 33 32 32 31 30 29 27 25 24 22 22 21 21 22 21 20 19 17 17 15 15 15 14 12 11 9
5 3 6 5 6 6 8 8 19 10 17 18 13 4 13 22 25 23 17 23 32 35 37 36 35 34 33 32 31 30 28 27 26 25 24 24 23 22 21 19 18 17 17 16 16 16 14 14 11
1 5 3 2 4 9 8 17 12 17 15 11 23 30 29 32 26 22 26 23 33 33 37 38 36 35 35 34 34 32 31 30 28 27 26 25 24 23 23 21 21 20 19 19 19 19 17 16 13
4 3 4 6 11 13 14 16 17 21 29 24 33 40 39 33 36 31 25 24 35 36 38 39 38 37 36 35 34 34 33 32 30 28 27 26 26 25 24 24 23 23 23 21 21 21 19 18 16
7 3 5 12 17 19 22 23 21 29 29 32 32 31 30 25 26 32 28 26 24 39 39 42 40 39 38 36 35 35 33 32 30 29 28 27 26 25 25 25 24 24 23 23 22 22 21 20 18
5 13 16 15 20 18 19 19 9 12 25 24 31 36 36 35 29 35 33 28 25 29 42 40 41 40 40 39 37 35 33 30 30 29 28 28 26 25 24 25 25 25 25 24 23 23 22 21 20
8 16 19 14 4 4 18 23 11 9 21 22 23 28 33 31 29 32 36 34 32 30 33 42 42 43 43 40 38 34 33 30 29 28 28 28 27 26 24 24 25 25 25 25 25 24 23 22 21
8 8 6 4 16 8 14 27 16 25 24 32 31 30 36 38 32 30 34 34 30 29 31 38 43 45 44 41 40 37 35 33 30 29 29 29 27 26 25 25 25 25 25 25 25 24 24 24 24
1 12 16 16 10 16 5 28 4 37 34 34 32 32 34 39 36 32 33 31 31 30 31 32 43 44 45 43 41 40 37 36 34 31 30 29 29 28 26 25 25 25 25 26 26 26 26 26 25
12 15 18 18 7 17 22 28 30 32 32 32 31 31 32 37 42 31 31 32 32 36 32 34 36 46 44 45 43 40 38 38 37 34 33 32 32 31 28 27 26 26 27 27 28 28 28 27 25
16 18 22 25 27 18 21 22 28 34 29 32 34 30 35 37 35 28 32 27 30 29 34 33 35 45 44 45 43 41 40 40 40 36 36 34 35 33 31 31 28 28 30 29 28 28 28 27 24
11 13 22 21 20 14 19 23 26 28 31 31 27 33 33 34 30 21 24 23 23 24 27 33 36 39 43 42 39 41 40 43 41 37 35 36 36 36 34 34 31 30 30 30 30 29 29 27 24
14 15 17 16 23 25 16 15 8 20 25 10 13 15 13 12 10 10 9 7 11 16 20 26 34 36 38 39 37 40 40 39 40 42 40 40 37 36 34 35 35 32 31 31 30 31 29 28 26
16 9 12 14 14 8 8 13 17 15 13 13 16 15 17 16 13 11 3 1 2 6 10 15 23 31 36 33 33 36 40 40 42 40 40 41 39 37 34 36 38 36 32 31 31 30 30 29 30
7 5 12 14 14 14 15 7 5 14 16 13 14 17 15 14 14 14 11 7 6 5 8 10 14 19 25 31 28 31 34 35 35 37 36 36 38 39 38 39 39 35 34 32 32 30 30 33 32
3 8 12 9 6 5 4 3 3 8 11 13 14 18 16 16 15 15 13 10 9 9 9 9 11 12 16 21 27 27 30 32 35 35 33 32 30 32 41 38 36 30 27 31 34 32 31 32 34
5 4 3 2 3 5 8 6 4 11 13 11 14 23 22 18 18 19 20 18 16 15 14 14 13 9 12 18 22 25 27 29 32 31 32 32 30 31 34 42 37 32 29 30 35 36 33 33 35
6 4 2 4 4 11 11 5 4 7 15 20 22 25 28 23 21 21 23 22 21 21 19 15 15 13 8 14 17 19 23 30 31 29 29 31 32 32 30 32 35 36 34 29 34 39 38 35 36
2 5 3 4 8 6 1 2 5 15 14 19 23 25 29 31 28 26 27 28 26 24 22 20 16 13 10 7 6 11 19 23 27 30 30 25 29 34 32 30 34 38 36 39 45 42 40 38 36
14 1 1 2 4 4 2 3 6 14 15 16 18 26 29 32 34 32 30 33 34 29 25 22 20 18 14 5 4 5 8 18 23 31 31 32 32 32 31 30 32 35 39 41 39 35 36 39 37
3 4 5 3 3 3 4 3 6 10 12 14 18 25 28 29 33 35 34 37 36 36 33 27 25 22 18 12 6 6 5 6 11 18 21 25 31 37 34 32 32 37 41 38 34 35 35 37 38
2 4 9 4 3 1 1 3 7 9 13 19 20 22 25 30 31 30 38 40 41 40 40 39 32 27 24 17 11 6 8 7 7 10 14 16 20 21 24 27 30 35 41 43 39 35 37 37 39
Wind_Direction
257 240 200 176 196 56 176 241 270 258 232 214 297 269 273 278 202 234 298 225 202 185 184 184 188 185 184 187 187 185 180 176 173 168 160 157 158 161 161 158 159 158 158 159 156 157 158 157 157
235 196 173 140 199 194 234 230 230 233 238 300 302 290 266 285 260 259 283 230 187 185 184 184 188 187 186 189 190 189 186 182 178 173 166 163 161 162 162 157 156 158 163 165 160 162 163 162 165
210 183 177 147 153 220 232 218 272 308 313 273 299 293 295 264 306 265 291 193 178 182 186 186 189 188 190 193 192 192 189 187 182 177 173 168 167 165 165 160 160 162 167 168 168 168 171 171 174
172 171 76 221 218 244 246 54 223 322 329 28 342 295 300 308 313 293 265 180 179 183 186 190 189 189 193 195 195 194 192 190 186 180 178 176 172 172 170 167 165 167 168 173 173 175 177 175 175
178 151 218 215 250 286 270 272 277 289 293 270 301 285 298 315 328 321 205 188 184 184 188 192 191 192 195 197 198 198 195 193 191 187 184 181 180 179 177 173 172 169 170 174 175 178 175 173 168
157 110 210 241 250 250 277 267 257 271 271 281 254 259 264 340 348 325 234 203 192 191 191 192 192 195 198 199 199 200 198 197 196 193 191 188 187 186 183 180 178 176 175 177 175 172 175 169 171
163 168 232 199 230 268 262 281 268 278 278 285 267 267 281 343 334 332 267 217 202 197 196 194 194 196 199 202 202 201 199 200 200 198 196 194 194 192 189 187 184 183 177 180 176 177 177 173 176
142 161 196 226 258 272 253 261 288 267 304 330 333 304 326 333 323 320 297 226 207 200 201 198 197 196 198 200 203 204 201 201 201 200 199 197 198 198 196 193 192 190 185 184 182 180 181 180 178
139 230 244 248 249 279 299 335 300 322 301 332 301 294 315 329 337 316 291 233 208 206 204 203 201 200 199 200 200 202 203 204 203 200 199 200 200 200 201 201 198 195 194 189 187 185 188 186 182
207 216 233 235 245 275 320 327 315 315 310 306 297 270 315 327 331 335 303 241 216 212 208 206 204 204 201 200 199 199 200 203 203 202 199 202 203 204 206 204 203 201 198 194 192 192 195 196 190
168 243 219 264 338 358 326 310 308 301 288 283 303 302 303 305 305 302 309 262 225 219 214 212 208 207 207 202 200 199 200 203 203 204 204 203 204 205 207 206 204 204 202 198 196 198 202 202 202
293 279 337 327 335 328 315 302 284 278 284 286 289 289 292 291 293 290 285 297 241 226 219 216 215 210 209 205 203 203 202 203 205 205 206 206 206 208 209 211 212 211 210 206 206 207 205 208 211
246 267 300 301 308 301 294 280 274 274 284 294 294 294 295 295 289 287 284 279 272 241 227 219 218 215 212 209 207 209 206 207 207 208 209 210 212 213 213 215 217 219 217 216 214 213 213 217 219
307 297 302 307 296 285 274 289 304 273 290 283 292 293 292 291 287 285 280 278 270 259 236 228 222 219 217 213 211 211 212 210 212 211 214 214 216 218 219 219 220 222 223 223 222 221 221 224 226
292 301 302 291 275 319 327 280 262 295 317 302 298 297 296 293 291 278 277 269 273 271 250 237 227 222 220 219 217 215 217 213 215 217 219 220 221 221 222 223 225 225 226 227 228 227 225 228 231
308 284 330 100 315 343 5 283 300 297 324 309 302 294 289 287 291 284 279 272 267 266 256 241 233 224 223 221 223 220 219 220 219 221 223 224 226 226 225 225 227 228 229 231 231 232 230 232 233
351 292 294 308 310 286 283 295 266 304 300 296 292 287 281 285 282 285 291 276 263 262 259 247 236 228 226 226 226 227 227 227 227 226 228 230 231 231 229 229 230 229 230 232 231 233 233 235 238
289 284 285 290 274 288 286 280 291 293 286 284 286 283 283 278 279 288 291 280 268 259 258 252 238 230 228 229 228 230 232 235 233 235 234 233 234 235 232 232 230 231 231 230 230 233 235 238 241
275 284 289 280 286 295 282 282 290 291 280 280 278 281 275 271 269 279 282 276 268 256 252 237 235 231 230 228 229 230 234 236 236 234 236 237 238 237 235 235 232 230 232 233 232 233 237 238 241
276 282 271 286 292 304 297 292 280 284 283 286 296 283 282 279 276 276 271 259 245 237 230 228 231 228 231 232 235 236 237 239 242 239 237 236 236 238 235 236 235 231 232 233 232 231 234 236 237
260 256 276 278 309 303 296 290 307 297 294 9 14 0 357 340 319 266 249 253 216 213 211 214 222 228 230 235 237 239 241 244 245 241 239 239 236 235 233 235 236 233 233 236 237 232 230 233 233
278 227 259 287 306 302 350 294 325 338 345 7 15 9 2 1 352 352 309 315 119 172 183 190 206 217 223 223 231 238 239 240 246 248 245 241 238 236 233 234 237 236 235 237 238 238 229 231 235
252 267 282 282 285 298 300 257 316 356 355 3 358 5 5 9 10 9 9 356 27 93 134 155 181 201 216 220 219 232 239 243 247 251 250 249 248 238 233 234 239 237 237 240 242 240 232 230 236
222 293 286 262 256 264 351 351 3 5 344 347 352 354 6 14 17 22 30 37 55 66 99 109 157 183 205 214 218 223 236 246 248 247 248 248 247 243 238 238 241 239 249 258 251 246 241 237 234
190 266 317 290 198 258 333 323 33 2 3 355 354 355 3 16 20 24 34 36 50 60 75 86 100 143 194 205 207 218 227 235 239 249 255 253 248 248 243 236 231 233 242 248 256 250 245 242 236
182 195 274 306 306 312 308 348 46 20 8 5 5 10 11 16 23 27 34 36 46 55 63 78 89 95 134 188 201 213 225 234 237 240 245 254 251 249 252 247 235 226 240 243 255 251 250 247 242
147 200 202 280 274 267 12 65 208 20 15 4 8 13 10 15 23 24 32 37 48 55 57 64 68 76 85 122 171 208 233 239 242 248 246 248 255 254 250 245 237 236 234 252 241 254 249 250 245
230 165 187 177 290 288 166 95 357 2 9 2 7 10 9 14 23 29 33 38 45 53 58 64 62 55 61 66 5 297 250 253 257 257 256 252 254 258 255 249 236 233 246 239 246 251 253 250 246
161 207 211 242 210 281 298 72 24 17 12 6 11 11 11 14 25 25 38 44 48 53 57 60 62 59 54 67 48 15 350 302 285 276 269 262 254 252 254 257 250 246 245 242 254 255 257 251 246
207 235 210 237 217 186 78 86 15 31 23 17 15 11 15 23 25 24 41 46 49 50 53 54 55 55 51 46 42 22 10 351 325 297 282 275 265 263 262 261 256 249 244 253 254 252 251 248 243
Height
1514 1515 1516 1518 1523 1524 1528 1515 1515 1510 1509 1505 1504 1504 1501 1498 1494 1494 1481 1481 1482 1487 1490 1494 1499 1502 1505 1509 1511 1513 1514 1514 1517 1520 1522 1524 1526 1528 1529 1531 1533 1536 1539 1540 1541 1543 1545 1546 1547
1513 1515 1516 1516 1520 1521 1513 1511 1507 1503 1504 1502 1499 1498 1498 1492 1489 1486 1481 1480 1482 1486 1489 1492 1497 1501 1504 1508 1511 1514 1515 1516 1517 1520 1522 1524 1526 1528 1530 1531 1533 1536 1538 1540 1541 1543 1544 1546 1547
1513 1514 1516 1515 1523 1511 1507 1505 1502 1503 1502 1501 1500 1496 1494 1491 1489 1486 1481 1479 1482 1485 1488 1492 1496 1500 1504 1508 1510 1513 1516 1518 1518 1520 1523 1524 1526 1527 1530 1531 1533 1535 1538 1540 1541 1543 1544 1546 1547
1512 1515 1517 1515 1514 1511 1508 1505 1505 1501 1499 1499 1500 1496 1494 1490 1489 1485 1481 1481 1483 1486 1490 1492 1495 1499 1503 1507 1510 1513 1515 1517 1519 1520 1522 1524 1525 1528 1529 1532 1533 1535 1537 1539 1541 1542 1544 1545 1546
1511 1512 1514 1518 1514 1514 1509 1506 1505 1498 1500 1498 1500 1494 1494 1488 1487 1484 1483 1483 1484 1486 1490 1494 1496 1499 1502 1505 1509 1512 1515 1516 1519 1520 1522 1524 1526 1527 1529 1531 1533 1535 1537 1539 1541 1542 1543 1545 1547
1511 1512 1514 1513 1513 1510 1506 1500 1500 1497 1497 1496 1496 1494 1490 1488 1486 1484 1484 1484 1485 1488 1490 1493 1495 1499 1502 1505 1507 1511 1514 1516 1518 1520 1522 1524 1526 1527 1529 1531 1533 1535 1537 1539 1540 1542 1543 1545 1547
1510 1511 1510 1515 1511 1508 1502 1497 1496 1494 1494 1493 1493 1491 1488 1487 1485 1485 1484 1484 1485 1487 1490 1492 1495 1498 1502 1505 1507 1509 1512 1515 1517 1519 1521 1524 1526 1528 1529 1531 1533 1535 1537 1539 1540 1542 1543 1545 1546
1509 1511 1514 1511 1507 1501 1499 1496 1494 1494 1492 1493 1491 1489 1488 1486 1484 1482 1482 1483 1485 1487 1488 1490 1493 1496 1499 1502 1506 1508 1511 1513 1516 1518 1521 1523 1525 1528 1529 1531 1533 1535 1536 1538 1540 1542 1543 1544 1546
1508 1510 1509 1507 1505 1498 1498 1497 1494 1494 1493 1492 1492 1490 1489 1485 1483 1480 1479 1481 1482 1484 1486 1488 1490 1493 1496 1499 1502 1506 1509 1512 1514 1516 1519 1522 1523 1526 1529 1530 1532 1534 1536 1537 1540 1541 1543 1544 1545
1507 1508 1504 1501 1499 1498 1500 1500 1498 1495 1493 1490 1487 1487 1486 1484 1482 1481 1479 1479 1480 1481 1482 1485 1487 1490 1493 1495 1499 1502 1506 1510 1512 1514 1515 1518 1521 1524 1526 1529 1532 1533 1535 1537 1539 1540 1542 1543 1544
1506 1502 1503 1501 1502 1502 1500 1498 1500 1496 1489 1489 1486 1483 1484 1482 1483 1481 1479 1478 1477 1478 1482 1484 1485 1488 1491 1493 1496 1499 1502 1506 1509 1512 1513 1516 1518 1521 1524 1527 1529 1532 1533 1535 1537 1539 1540 1542 1543
1507 1505 1505 1504 1502 1503 1500 1498 1495 1497 1488 1489 1484 1480 1480 1480 1477 1478 1477 1475 1474 1474 1476 1481 1485 1486 1488 1491 1495 1497 1498 1502 1505 1508 1511 1513 1515 1518 1520 1523 1526 1529 1531 1532 1534 1537 1538 1540 1542
1505 1504 1504 1503 1502 1500 1497 1494 1493 1487 1489 1484 1480 1476 1473 1474 1473 1471 1471 1471 1469 1470 1473 1475 1480 1484 1486 1488 1491 1494 1495 1499 1503 1505 1508 1510 1512 1515 1517 1520 1523 1525 1528 1530 1532 1534 1536 1538 1539
1502 1500 1501 1499 1498 1496 1491 1485 1489 1483 1485 1480 1476 1470 1468 1466 1468 1465 1464 1464 1464 1465 1468 1471 1475 1480 1483 1484 1485 1489 1493 1496 1500 1503 1505 1507 1509 1511 1514 1516 1518 1522 1524 1527 1529 1532 1534 1536 1538
1500 1495 1493 1493 1492 1492 1489 1473 1480 1479 1480 1477 1473 1468 1461 1459 1459 1458 1456 1457 1459 1460 1462 1465 1470 1474 1477 1481 1483 1485 1490 1492 1495 1498 1502 1504 1506 1508 1510 1513 1515 1518 1521 1524 1526 1529 1531 1533 1535
1499 1495 1492 1491 1493 1492 1493 1453 1475 1476 1475 1472 1471 1466 1458 1450 1451 1449 1450 1450 1452 1453 1452 1457 1462 1466 1472 1474 1479 1482 1484 1488 1490 1493 1497 1500 1502 1505 1507 1509 1511 1515 1517 1520 1522 1525 1528 1530 1531
1503 1491 1490 1488 1491 1490 1492 1466 1470 1475 1472 1463 1461 1459 1455 1447 1443 1444 1445 1443 1444 1444 1446 1447 1452 1458 1465 1469 1473 1478 1481 1483 1485 1488 1492 1496 1499 1501 1503 1505 1508 1511 1513 1515 1518 1521 1523 1526 1528
1494 1494 1490 1490 1487 1488 1487 1473 1456 1467 1464 1456 1453 1450 1448 1444 1437 1440 1437 1436 1435 1435 1436 1438 1443 1450 1458 1463 1466 1472 1476 1479 1481 1483 1486 1489 1493 1496 1499 1501 1503 1507 1508 1510 1513 1515 1518 1521 1524
1496 1496 1492 1480 1477 1487 1478 1474 1458 1451 1453 1448 1442 1443 1438 1433 1431 1431 1428 1426 1425 1425 1426 1428 1433 1441 1449 1454 1459 1463 1468 1471 1473 1476 1479 1483 1488 1490 1494 1496 1498 1501 1503 1505 1507 1510 1513 1516 1520
1498 1498 1486 1476 1475 1477 1468 1465 1456 1445 1439 1442 1440 1434 1430 1428 1427 1426 1421 1418 1417 1417 1418 1421 1425 1431 1439 1446 1452 1457 1461 1464 1468 1471 1472 1475 1479 1483 1486 1489 1492 1494 1496 1498 1501 1504 1506 1511 1515
1490 1493 1486 1486 1473 1468 1464 1451 1447 1440 1436 1439 1440 1437 1431 1428 1423 1419 1417 1414 1411 1410 1411 1415 1418 1423 1431 1439 1444 1449 1453 1457 1459 1463 1464 1468 1472 1477 1479 1482 1485 1487 1489 1491 1494 1497 1501 1504 1508
1484 1485 1485 1482 1481 1472 1468 1452 1442 1440 1436 1444 1443 1438 1434 1429 1426 1420 1415 1412 1408 1406 1407 1409 1413 1418 1424 1430 1435 1441 1444 1447 1451 1455 1458 1461 1466 1470 1473 1475 1478 1482 1484 1486 1488 1491 1495 1499 1501
1481 1481 1480 1479 1478 1474 1455 1463 1438 1447 1450 1449 1449 1443 1437 1431 1426 1422 1417 1414 1409 1406 1406 1406 1409 1412 1418 1424 1429 1436 1441 1442 1447 1449 1451 1454 1459 1465 1467 1469 1472 1476 1480 1482 1483 1485 1488 1492 1494
1479 1480 1474 1473 1476 1474 1457 1465 1449 1465 1466 1458 1453 1448 1440 1433 1428 1423 1418 1415 1410 1407 1405 1405 1405 1408 1413 1418 1423 1430 1436 1440 1443 1444 1445 1446 1449 1454 1458 1463 1466 1470 1476 1480 1480 1481 1482 1484 1488
1481 1480 1471 1468 1471 1456 1447 1450 1471 1473 1471 1466 1459 1453 1444 1436 1431 1426 1418 1416 1411 1407 1404 1404 1402 1406 1411 1416 1421 1425 1429 1436 1438 1441 1440 1440 1443 1446 1448 1451 1456 1462 1467 1472 1473 1475 1476 1476 1479
1476 1473 1471 1471 1456 1453 1444 1452 1472 1478 1475 1469 1462 1456 1448 1440 1435 1430 1423 1419 1413 1408 1406 1405 1405 1408 1414 1416 1418 1421 1426 1433 1433 1434 1435 1435 1436 1439 1443 1445 1450 1451 1454 1459 1464 1465 1468 1469 1472
1473 1471 1466 1469 1462 1462 1452 1469 1471 1476 1475 1471 1465 1458 1449 1443 1437 1432 1428 1423 1417 1413 1410 1407 1410 1412 1414 1415 1419 1415 1427 1429 1425 1428 1429 1429 1430 1432 1435 1438 1441 1446 1447 1449 1454 1456 1458 1460 1464
1463 1463 1467 1469 1465 1453 1452 1467 1477 1478 1477 1475 1468 1462 1457 1449 1441 1436 1433 1427 1423 1419 1416 1413 1412 1412 1411 1407 1411 1422 1419 1420 1422 1424 1424 1424 1425 1427 1430 1433 1435 1438 1440 1442 1445 1446 1449 1452 1455
1464 1462 1463 1461 1462 1455 1448 1473 1489 1488 1485 1481 1476 1469 1462 1458 1450 1443 1436 1431 1428 1426 1421 1418 1417 1415 1415 1415 1421 1424 1421 1420 1420 1419 1417 1416 1417 1419 1423 1425 1427 1431 1433 1435 1436 1439 1441 1443 1448
1456 1455 1456 1458 1453 1453 1460 1484 1493 1491 1490 1485 1482 1478 1471 1464 1458 1448 1443 1435 1431 1428 1425 1419 1417 1415 1419 1420 1421 1419 1417 1415 1415 1414 1412 1411 1411 1413 1416 1418 1420 1423 1426 1428 1430 1432 1433 1435 1438